📊 Raw Sensor Data

Showing records 32301 to 32325 of 84,686 total

ID Distance (ft) Battery V Battery A Int Temp (°F) Int Humid (%) Ext Temp (°F) Solar V RSSI SNR Time Stamp
52398 14.9 4.05 -5 66 45 66 0.00 -71 8 09/19/2025 12:15 AM
52397 14.9 4.05 -5 66 45 66 0.10 -70 8 09/19/2025 12:00 AM
52396 14.9 4.05 -5 66 45 66 0.00 -71 7 09/18/2025 11:45 PM
52395 14.9 4.05 -5 66 45 66 0.00 -69 8 09/18/2025 11:30 PM
52394 14.9 4.05 -5 66 45 67 0.00 -71 7 09/18/2025 11:15 PM
52393 14.9 4.05 -5 66 45 66 0.00 -70 8 09/18/2025 11:00 PM
52392 15.0 4.05 -5 66 45 66 0.00 -69 8 09/18/2025 10:45 PM
52391 15.0 4.00 -5 67 45 67 0.10 -70 8 09/18/2025 10:30 PM
52390 14.9 4.00 -5 68 45 68 0.10 -73 7 09/18/2025 10:15 PM
52389 15.0 4.00 -5 68 45 68 0.00 -70 7 09/18/2025 10:00 PM
52388 14.9 4.00 -5 69 45 69 0.00 -70 8 09/18/2025 09:45 PM
52387 14.9 4.06 -5 69 45 70 0.00 -70 7 09/18/2025 09:30 PM
52386 14.9 4.06 -5 69 45 69 0.00 -71 8 09/18/2025 09:15 PM
52385 14.9 4.00 -5 70 46 70 0.00 -70 8 09/18/2025 09:00 PM
52384 15.0 4.00 -5 70 46 70 0.00 -70 8 09/18/2025 08:45 PM
52383 15.0 4.01 -5 70 46 71 0.00 -71 8 09/18/2025 08:30 PM
52382 15.0 4.06 -5 71 46 71 0.00 -70 8 09/18/2025 08:15 PM
52381 15.0 4.01 -5 71 46 71 0.00 -70 8 09/18/2025 08:00 PM
52380 15.0 4.01 -5 72 46 72 0.00 -71 7 09/18/2025 07:45 PM
52379 15.0 4.01 -5 73 46 73 0.00 -72 8 09/18/2025 07:30 PM
52378 15.0 4.06 -5 74 46 74 0.90 -72 8 09/18/2025 07:15 PM
52377 15.0 4.00 -10 74 47 74 2.40 -74 8 09/18/2025 07:00 PM
52376 15.0 4.01 0 75 47 74 4.50 -73 8 09/18/2025 06:45 PM
52375 15.0 4.09 0 76 47 76 4.50 -73 8 09/18/2025 06:30 PM
52374 15.0 4.11 0 77 47 77 4.50 -76 7 09/18/2025 06:15 PM